Wind_Speed
95 100 100 98 99 102 103 102 100 96 95 95 97 96 94 92 89 86 84 82 82 80 78 78 76 73 69 73 73 74 71 74 67 68 66 68 68 65 66 64 63 62 66 66 67 67 64
104 106 107 99 98 101 105 106 102 99 97 98 100 99 99 96 94 91 89 89 89 88 86 83 76 75 76 70 73 72 72 74 71 71 70 69 68 70 71 73 71 68 70 71 71 71 69
114 112 109 111 107 104 102 106 102 99 99 99 103 101 99 101 99 99 96 91 92 90 90 91 92 87 82 83 79 80 80 80 79 77 76 79 77 76 76 78 77 77 74 77 77 78 74
120 118 120 111 115 114 103 100 104 100 98 99 99 104 105 105 106 102 101 96 98 94 90 91 92 91 87 90 89 88 84 87 82 81 83 80 80 84 83 84 83 83 80 79 82 83 80
124 124 123 119 120 119 117 110 108 104 101 102 103 102 106 108 106 106 105 104 98 100 93 87 90 91 92 93 93 93 93 92 91 91 90 87 87 89 89 89 89 90 87 86 86 85 84
128 128 128 127 122 121 121 116 112 110 108 105 100 104 107 109 110 111 109 107 104 103 103 96 89 89 96 96 99 98 97 99 98 97 94 93 90 90 96 97 93 94 93 90 88 90 89
120 123 126 128 131 128 126 116 118 119 114 110 107 107 108 109 110 113 107 106 108 108 105 102 96 91 91 96 96 99 100 101 100 99 98 95 91 93 97 95 95 92 92 89 91 93 92
113 114 119 122 126 130 128 119 122 119 118 113 109 112 112 115 115 115 111 109 109 107 105 106 101 100 97 94 96 101 102 105 106 105 104 99 96 98 95 94 94 93 91 91 90 90 89
116 115 116 118 118 125 131 127 125 125 124 119 116 117 117 119 120 119 119 114 115 114 108 105 104 103 102 99 97 100 101 102 103 100 100 96 93 97 94 93 92 90 87 86 86 84 80
121 119 119 117 118 120 125 130 129 128 128 126 123 123 124 123 122 121 122 120 117 119 116 105 108 104 104 106 103 102 105 104 97 94 95 93 88 89 91 88 90 86 84 83 81 80 77
126 125 121 117 117 117 122 125 127 130 129 133 129 121 126 129 129 128 127 121 122 123 122 118 112 114 114 114 112 110 111 111 107 103 97 93 90 86 87 91 89 86 88 88 87 88 84
129 125 126 122 121 121 118 119 122 124 124 130 130 129 125 124 123 121 123 124 124 119 121 119 120 118 119 117 116 115 115 114 114 112 107 102 98 96 97 92 91 90 89 91 96 93 86
121 124 123 126 124 124 124 119 119 120 122 124 124 123 124 126 122 119 115 120 122 124 116 120 112 116 114 111 116 113 114 114 113 111 109 108 104 102 103 95 93 93 94 94 92 93 85
115 118 124 125 123 126 122 123 120 120 119 121 123 124 118 123 123 123 110 108 119 115 115 107 108 112 115 115 107 111 109 113 112 109 107 104 103 97 98 97 99 101 97 95 96 98 95
109 113 116 118 119 118 120 120 121 120 119 118 117 124 123 123 124 124 126 121 107 105 109 111 114 113 113 116 108 105 107 106 113 113 111 109 104 101 98 98 98 98 98 102 105 106 107
102 105 108 109 112 111 111 114 119 119 119 117 119 119 120 125 125 125 123 122 122 123 117 118 120 123 123 120 116 117 118 116 113 118 117 116 113 110 105 104 105 104 108 110 114 115 113
99 100 102 105 108 108 108 109 112 114 116 116 117 118 116 114 118 121 123 122 120 121 126 129 130 129 127 128 125 126 126 129 127 122 121 120 115 112 114 114 116 117 117 119 118 120 120
99 99 99 99 102 107 108 107 109 109 112 112 113 113 113 113 116 120 121 122 123 123 123 126 132 131 131 130 129 131 128 127 127 127 127 129 127 123 121 120 122 125 121 122 125 124 125
93 96 97 97 98 101 105 106 107 109 111 111 111 113 114 117 117 116 117 118 118 123 123 124 127 128 130 132 133 134 133 133 134 131 130 132 131 130 128 127 126 125 126 126 127 129 128
82 87 91 96 97 95 97 100 102 105 106 110 113 114 114 116 115 116 118 118 119 118 116 120 124 125 126 128 130 127 131 134 134 134 137 138 133 132 131 128 131 130 129 130 128 130 130
76 80 83 88 92 94 95 95 96 96 100 104 108 109 112 113 115 116 119 116 116 117 117 117 116 118 122 123 124 126 126 127 128 129 131 131 126 129 127 122 124 123 121 123 124 122 126
70 71 75 79 84 87 90 92 92 93 95 96 100 105 108 111 113 112 110 110 113 113 111 111 111 113 115 116 117 120 121 119 117 119 119 119 115 113 109 109 108 106 101 100 110 114 119
62 66 70 73 76 79 82 87 91 93 94 97 98 98 98 98 101 103 104 104 103 104 103 103 106 107 108 110 110 110 110 110 109 109 110 109 105 105 103 102 103 101 89 97 102 107 108
57 60 64 67 70 73 76 79 82 85 87 90 93 97 95 95 97 100 99 97 98 98 98 99 101 103 105 104 103 102 99 99 98 97 99 95 95 97 93 94 95 85 86 89 93 94 98
52 55 58 61 64 66 69 72 75 78 81 83 84 87 89 88 88 90 92 92 91 93 95 96 97 98 95 92 91 89 89 86 85 80 87 87 87 89 89 84 83 70 79 83 87 80 88
49 52 54 56 58 60 63 66 68 72 74 75 77 79 80 80 83 86 86 87 89 89 88 88 89 91 88 86 84 80 78 79 75 75 81 82 80 83 79 80 73 67 76 78 77 70 78
45 47 49 52 54 56 59 61 63 67 69 71 71 73 74 75 79 81 80 80 82 83 81 83 85 84 80 76 74 72 72 73 69 70 75 75 72 72 74 74 62 65 69 70 67 68 68
39 42 44 47 50 53 56 57 59 61 63 65 67 67 67 67 69 73 74 75 76 79 79 74 71 71 72 71 69 67 69 70 66 67 66 65 69 67 64 65 58 63 66 64 61 62 64
36 38 40 42 45 48 50 53 55 57 59 62 64 63 61 62 67 68 70 76 78 70 66 69 66 66 69 68 66 65 62 61 61 57 61 58 61 63 63 57 55 58 59 56 56 59 59
Wind_Direction
248 250 251 251 250 250 251 251 253 254 252 250 249 250 250 249 249 248 247 247 250 253 257 262 264 262 268 263 263 265 268 273 272 274 271 271 270 269 270 270 272 275 277 281 284 284 284
247 250 248 248 251 253 252 252 252 252 251 249 247 250 251 247 250 249 249 248 249 248 248 251 253 257 261 261 262 262 262 263 264 265 270 273 270 272 272 274 277 278 276 279 283 282 282
250 249 250 247 250 252 251 252 249 250 248 248 248 249 250 249 250 250 251 252 253 254 255 254 255 257 259 262 265 265 265 265 264 268 266 268 271 273 275 276 276 276 277 280 282 284 283
246 247 249 251 248 250 251 250 250 250 250 248 247 248 249 250 251 251 251 252 255 254 257 258 258 258 258 262 262 264 263 263 267 268 266 269 270 270 273 275 277 278 279 278 279 282 284
246 245 247 249 249 249 252 252 252 251 248 248 246 247 248 249 250 251 252 253 256 257 258 261 259 260 256 261 262 261 264 265 266 268 269 270 270 273 274 274 276 276 277 279 280 282 282
244 247 248 246 246 246 248 252 252 251 248 249 248 248 249 250 250 252 253 255 257 257 259 260 259 259 256 257 260 262 262 264 265 268 270 270 270 270 272 273 274 277 276 276 277 279 279
243 245 246 246 245 246 247 247 249 250 250 250 249 251 252 254 254 253 252 255 256 256 257 261 260 262 262 261 259 262 263 264 266 268 268 270 271 273 270 272 274 274 276 277 278 278 279
244 246 245 245 245 247 247 247 246 247 249 249 249 252 254 255 256 257 256 256 257 257 259 260 258 260 261 262 263 263 265 264 265 266 268 268 269 270 271 274 275 275 274 274 276 276 279
247 246 246 245 245 246 244 244 244 244 246 248 247 251 254 256 256 257 258 256 258 259 257 261 259 260 262 264 264 263 264 266 265 268 268 267 270 271 271 272 274 275 275 273 274 274 277
246 247 246 245 244 246 244 245 244 244 246 247 248 249 252 254 256 258 260 260 259 258 258 258 260 260 263 264 262 263 266 264 265 266 266 266 268 269 269 271 270 270 270 270 272 273 274
246 245 246 246 246 245 245 246 246 246 246 245 247 249 252 252 255 254 255 259 260 260 259 258 257 259 262 262 264 264 265 268 271 272 270 268 270 268 266 269 271 271 272 272 272 272 272
242 244 245 245 246 246 245 245 246 246 245 248 246 247 250 253 253 254 257 258 258 259 260 264 264 263 264 265 266 267 267 269 270 270 271 274 273 272 273 273 272 272 272 273 273 272 273
240 242 243 243 244 245 246 245 245 247 248 247 247 246 247 250 251 253 254 257 258 259 260 260 260 261 262 265 267 268 269 271 272 272 273 274 275 277 276 277 276 276 278 279 276 274 274
239 239 240 241 242 243 244 245 245 245 246 246 247 246 248 246 247 249 249 250 255 257 258 258 254 258 260 260 261 264 267 269 270 270 271 271 273 274 275 277 279 280 280 279 279 278 276
237 237 237 239 240 243 242 244 244 245 246 245 247 246 246 247 246 249 250 248 245 250 254 255 256 255 258 261 261 257 262 262 265 266 267 266 268 269 267 269 271 272 272 272 275 278 278
237 236 236 237 238 239 240 241 243 245 245 246 247 247 246 247 248 249 249 248 249 250 246 248 252 257 259 259 258 256 259 262 260 263 265 267 268 268 267 266 267 266 269 271 271 270 270
236 236 236 236 237 237 237 238 241 242 244 245 247 246 248 248 248 248 250 249 248 249 250 250 253 254 257 259 258 260 261 263 263 262 262 264 264 264 266 268 270 271 272 270 273 275 276
235 236 236 236 237 236 235 238 238 240 242 243 245 247 247 249 250 251 250 250 252 250 250 250 251 252 254 255 257 261 262 265 265 266 267 269 269 268 267 268 268 269 270 273 273 275 276
235 235 236 237 238 238 237 237 239 239 240 241 242 245 247 248 250 252 253 252 251 251 252 253 254 255 256 258 258 259 258 260 261 260 262 266 266 270 272 274 276 274 274 274 274 274 276
235 236 236 236 237 239 239 239 241 241 241 241 241 243 245 248 249 250 252 253 254 255 255 255 255 256 257 258 259 259 259 262 264 265 265 266 269 269 267 267 271 273 272 271 272 274 274
234 234 236 237 238 238 240 240 241 242 244 244 245 246 246 246 248 250 252 254 255 256 257 257 257 258 258 257 260 261 262 263 265 268 268 269 271 271 272 272 272 271 269 270 273 273 272
234 234 235 237 237 237 238 239 242 243 245 245 246 247 248 249 250 253 256 257 257 258 258 258 257 258 259 260 260 262 263 265 266 268 270 271 272 272 271 272 271 268 268 269 270 270 270
234 234 235 236 236 238 238 239 240 240 242 245 246 247 248 251 253 254 255 255 257 258 258 258 258 259 261 263 264 265 266 267 268 268 269 270 272 273 273 271 270 269 272 268 267 268 268
233 233 234 235 236 237 238 240 240 242 243 244 247 248 248 249 250 251 253 255 256 257 259 259 260 261 262 263 263 265 267 267 268 269 270 272 272 270 270 269 270 273 271 268 266 266 267
233 234 235 235 236 237 239 240 241 241 242 243 245 247 249 250 251 253 254 255 257 257 258 259 260 261 263 264 264 265 266 268 270 269 270 268 267 269 269 268 268 272 269 267 266 267 269
233 234 235 235 236 237 238 239 240 242 243 244 245 247 248 250 251 253 255 256 257 258 259 261 261 262 262 263 265 266 268 268 267 265 266 267 267 267 268 268 267 266 266 265 266 268 268
236 236 237 237 238 238 239 240 241 242 244 245 246 248 249 250 251 254 255 256 257 258 259 259 260 263 265 266 266 267 266 265 265 265 264 267 268 268 267 266 266 263 262 264 267 266 268
238 239 239 239 239 240 241 242 243 245 247 248 249 250 250 252 253 254 256 257 258 258 257 260 264 265 264 267 266 265 264 263 263 263 263 261 262 264 264 265 265 262 263 264 266 267 266
240 240 240 240 240 241 242 243 243 244 245 248 250 251 252 252 254 255 256 256 254 259 261 259 263 266 265 262 261 261 262 262 261 260 258 257 258 259 263 264 262 261 264 266 265 266 265
Height
10644 10651 10659 10665 10672 10677 10683 10689 10695 10701 10705 10711 10716 10722 10728 10733 10737 10741 10744 10749 10754 10759 10762 10764 10769 10773 10776 10780 10774 10783 10783 10784 10786 10787 10785 10787 10789 10790 10792 10793 10795 10797 10792 10791 10789 10794 10793
10619 10626 10635 10641 10649 10655 10660 10667 10674 10679 10685 10689 10696 10702 10709 10713 10718 10723 10727 10730 10733 10738 10743 10749 10752 10758 10764 10768 10762 10767 10768 10769 10768 10771 10773 10776 10776 10777 10780 10779 10783 10784 10781 10778 10777 10777 10781
10595 10601 10607 10618 10626 10629 10636 10645 10652 10658 10662 10668 10676 10683 10688 10693 10697 10702 10707 10712 10716 10721 10727 10732 10737 10746 10755 10747 10751 10749 10752 10752 10753 10757 10757 10762 10763 10763 10766 10764 10767 10766 10770 10767 10763 10759 10765
10568 10575 10577 10591 10597 10605 10612 10624 10631 10638 10645 10650 10655 10662 10667 10671 10675 10683 10688 10693 10698 10702 10707 10715 10721 10728 10741 10723 10729 10729 10733 10732 10737 10740 10741 10748 10750 10749 10751 10748 10749 10750 10755 10753 10746 10745 10748
10538 10546 10552 10566 10571 10582 10590 10600 10607 10618 10623 10628 10633 10638 10643 10645 10655 10661 10667 10674 10681 10682 10692 10698 10704 10708 10718 10711 10708 10712 10714 10716 10718 10722 10725 10731 10736 10735 10734 10730 10732 10732 10738 10739 10734 10729 10731
10510 10517 10526 10537 10546 10557 10564 10576 10586 10591 10596 10604 10610 10617 10621 10624 10632 10638 10646 10654 10660 10664 10671 10677 10683 10686 10693 10692 10690 10692 10695 10697 10701 10704 10707 10712 10720 10721 10713 10709 10718 10716 10719 10720 10718 10711 10712
10479 10489 10498 10508 10517 10528 10534 10555 10560 10560 10573 10581 10587 10594 10599 10604 10607 10612 10623 10633 10636 10642 10649 10654 10662 10664 10669 10670 10673 10674 10675 10678 10680 10685 10690 10696 10703 10700 10689 10696 10699 10699 10700 10701 10698 10691 10695
10450 10459 10469 10479 10489 10499 10511 10526 10532 10536 10548 10556 10563 10567 10573 10577 10581 10584 10597 10605 10612 10620 10626 10632 10639 10646 10643 10652 10659 10654 10656 10657 10660 10664 10671 10676 10685 10673 10676 10678 10679 10681 10681 10680 10679 10671 10682
10423 10433 10441 10454 10465 10472 10482 10491 10502 10511 10520 10527 10538 10541 10546 10547 10554 10563 10567 10581 10589 10593 10606 10611 10615 10626 10621 10632 10638 10632 10634 10635 10640 10646 10647 10654 10663 10658 10657 10657 10658 10661 10663 10659 10660 10655 10663
10396 10403 10409 10427 10440 10447 10453 10459 10476 10486 10494 10502 10514 10517 10521 10526 10535 10542 10544 10549 10564 10568 10577 10597 10588 10603 10604 10604 10616 10613 10610 10618 10622 10628 10623 10639 10638 10640 10639 10641 10633 10645 10640 10641 10642 10643 10648
10366 10373 10385 10400 10411 10419 10428 10435 10447 10458 10468 10477 10488 10492 10496 10505 10508 10518 10524 10525 10538 10540 10550 10564 10578 10579 10579 10582 10587 10592 10589 10590 10602 10602 10606 10619 10621 10617 10620 10616 10617 10623 10623 10620 10620 10622 10629
10334 10348 10359 10370 10380 10392 10400 10412 10419 10429 10441 10448 10461 10469 10475 10477 10486 10493 10499 10505 10512 10513 10535 10537 10544 10552 10555 10557 10559 10564 10568 10570 10574 10579 10585 10592 10593 10597 10596 10595 10596 10597 10601 10600 10598 10598 10612
10306 10320 10330 10340 10351 10363 10373 10383 10394 10403 10413 10422 10431 10445 10452 10454 10460 10469 10475 10481 10483 10494 10511 10519 10522 10529 10530 10531 10537 10540 10545 10546 10549 10553 10560 10559 10566 10569 10573 10573 10572 10572 10575 10575 10576 10577 10592
10274 10287 10296 10308 10322 10335 10346 10356 10368 10377 10385 10395 10403 10414 10424 10428 10436 10445 10452 10457 10464 10482 10483 10492 10498 10500 10504 10511 10516 10521 10522 10524 10524 10528 10534 10541 10547 10550 10548 10548 10548 10549 10550 10548 10542 10543 10557
10243 10254 10267 10279 10293 10307 10320 10331 10342 10351 10360 10368 10376 10388 10396 10401 10409 10417 10424 10434 10448 10454 10458 10462 10470 10473 10481 10488 10493 10496 10498 10500 10503 10506 10509 10514 10528 10531 10528 10530 10533 10528 10526 10526 10517 10518 10517
10216 10228 10241 10252 10266 10278 10292 10304 10316 10325 10334 10342 10352 10360 10371 10375 10380 10386 10392 10414 10423 10432 10436 10437 10442 10448 10455 10460 10466 10470 10474 10478 10479 10481 10483 10486 10504 10505 10506 10510 10508 10507 10502 10503 10499 10494 10496
10191 10202 10216 10227 10238 10251 10263 10277 10288 10298 10308 10316 10325 10334 10347 10349 10353 10356 10371 10385 10397 10403 10407 10410 10413 10419 10429 10433 10436 10439 10443 10445 10452 10456 10458 10461 10471 10488 10488 10489 10485 10480 10482 10472 10472 10469 10468
10165 10179 10191 10202 10214 10225 10236 10250 10261 10271 10281 10292 10300 10310 10323 10323 10325 10333 10347 10360 10369 10374 10378 10381 10386 10392 10398 10404 10407 10408 10416 10413 10418 10422 10427 10429 10439 10459 10467 10468 10460 10453 10452 10449 10443 10446 10436
10140 10154 10168 10180 10192 10202 10213 10225 10235 10245 10255 10265 10274 10286 10291 10295 10301 10312 10321 10327 10334 10343 10350 10357 10361 10365 10369 10375 10378 10385 10388 10388 10391 10392 10397 10402 10407 10419 10433 10431 10429 10424 10422 10421 10414 10407 10410
10122 10134 10146 10157 10168 10180 10191 10202 10211 10221 10231 10241 10250 10259 10269 10271 10280 10285 10288 10295 10306 10318 10325 10329 10333 10339 10340 10343 10348 10358 10358 10357 10362 10366 10369 10370 10382 10386 10398 10413 10397 10398 10394 10388 10385 10384 10378
10103 10113 10126 10136 10147 10159 10169 10180 10189 10199 10208 10218 10227 10237 10242 10248 10253 10254 10260 10278 10283 10289 10293 10299 10307 10311 10313 10322 10321 10323 10329 10331 10336 10338 10335 10335 10349 10347 10359 10374 10364 10366 10365 10361 10355 10356 10336
10087 10097 10107 10117 10128 10138 10148 10157 10170 10179 10187 10196 10202 10209 10215 10222 10228 10237 10245 10255 10251 10256 10268 10273 10279 10281 10284 10289 10295 10300 10301 10306 10311 10310 10310 10312 10317 10316 10324 10326 10324 10324 10335 10344 10327 10319 10309
10074 10083 10090 10100 10111 10120 10129 10138 10147 10155 10164 10171 10180 10185 10193 10205 10210 10216 10219 10221 10227 10231 10240 10246 10248 10252 10255 10256 10266 10271 10277 10280 10285 10287 10283 10284 10288 10285 10289 10289 10284 10290 10319 10301 10294 10284 10281
10061 10068 10076 10084 10093 10102 10110 10119 10128 10138 10146 10152 10160 10167 10175 10179 10184 10187 10193 10199 10203 10206 10214 10218 10222 10226 10227 10235 10241 10245 10251 10253 10257 10261 10254 10264 10258 10251 10259 10257 10255 10280 10277 10271 10263 10263 10254
10048 10055 10062 10070 10078 10086 10095 10102 10110 10117 10123 10131 10138 10145 10153 10159 10164 10168 10169 10174 10179 10183 10187 10193 10196 10195 10205 10211 10214 10221 10224 10230 10233 10242 10229 10229 10229 10227 10225 10233 10239 10261 10242 10235 10230 10246 10229
10036 10042 10049 10057 10064 10072 10078 10085 10092 10097 10103 10111 10118 10124 10132 10139 10144 10143 10147 10152 10155 10161 10167 10172 10171 10171 10177 10183 10189 10198 10205 10205 10211 10214 10206 10203 10205 10199 10210 10206 10219 10230 10214 10209 10213 10225 10213
10025 10032 10038 10044 10051 10058 10063 10069 10075 10081 10085 10093 10099 10105 10113 10119 10122 10123 10128 10133 10136 10137 10144 10144 10145 10147 10156 10165 10171 10177 10179 10178 10185 10189 10184 10181 10182 10182 10182 10184 10206 10197 10190 10190 10198 10198 10199
10016 10021 10027 10033 10039 10044 10049 10055 10060 10066 10070 10075 10080 10087 10095 10103 10106 10106 10108 10110 10113 10112 10114 10124 10132 10135 10137 10141 10147 10152 10154 10154 10162 10162 10163 10164 10159 10164 10166 10169 10182 10173 10171 10179 10182 10181 10181
10005 10010 10015 10021 10026 10031 10035 10040 10046 10051 10056 10060 10063 10070 10080 10087 10086 10086 10088 10082 10080 10096 10107 10106 10116 10119 10115 10117 10123 10128 10136 10139 10141 10146 10140 10148 10146 10145 10148 10157 10161 10159 10160 10164 10164 10162 10163